Regional Weather Roundup
Issued by NWS

Home | Current Version | Previous Version | Graphics & Text | Print | Product List | Glossary Off
Versions: 1 2 3 4 5 6 7 8 9 10 11 12 13 14 15 16 17 18 19 20 21 22 23 24 25 26 27 28 29 30 31 32 33 34 35 36 37 38 39 40 41 42 43 44 45 46 47 48 49 50

000
ASUS43 KLSX 280807
RWRMO

WEATHER SUMMARY FOR MISSOURI
NATIONAL WEATHER SERVICE SPRINGFIELD MO
300 AM CDT SAT MAR 28 2015

NOTE: "FAIR" INDICATES FEW OR NO CLOUDS BELOW 12,000 FEET WITH NO
       SIGNIFICANT WEATHER AND/OR OBSTRUCTIONS TO VISIBILITY.
       CURRENT SKY AND/OR WEATHER CONDITIONS ARE NOT AVAILABLE FOR
       CHILLICOTHE AND FARMINGTON.

MOZ001>031-035>038-043-044-053-054-280900-
...NORTHERN AND WESTERN MISSOURI...

CITY           SKY/WX    TMP DP  RH WIND       PRES   REMARKS
KANSAS CTY INT CLOUDY    38  23  55 SE12      30.10F
KANSAS C DTWN  CLOUDY    41  22  46 E8        30.11F
LEE`S SUMMIT   CLOUDY    38  23  55 E9        30.11F
ST JOSEPH      CLOUDY    36  26  67 SE6       30.12F
CHILLICOTHE      N/A     38  22  52 SW3       30.15S
KIRKSVILLE     CLOUDY    30  18  60 E7        30.16S WCI  23

$$
MOZ066>068-077>081-088>096-101>105-280900-
...SOUTHWEST MISSOURI...

CITY           SKY/WX    TMP DP  RH WIND       PRES   REMARKS
SPRINGFIELD    CLOUDY    40  22  48 SE8       30.10F
JOPLIN         PTCLDY    39  26  59 SE5       30.10F

$$
MOZ032>034-039>042-045>050-055>058-069>072-280900-
...CENTRAL MISSOURI...

CITY           SKY/WX    TMP DP  RH WIND       PRES   REMARKS
COLUMBIA       CLOUDY    34  25  69 E8        30.14F WCI  27
JEFFERSON CITY CLOUDY    35  27  72 SE5       30.16F
ROLLA          CLOUDY    33  22  63 S6        30.12F WCI  28
SEDALIA        CLOUDY    39  24  55 E3        30.15S
WHITEMAN AFB   FLURRIES  37  27  65 E5        30.13S
WARRENSBURG    CLOUDY    37  25  60 E8        30.13S
OSAGE BEACH    CLOUDY    36  27  69 E3        30.14S

$$
MOZ051-052-059>065-280900-
...EAST CENTRAL MISSOURI...

CITY           SKY/WX    TMP DP  RH WIND       PRES   REMARKS
ST LOUIS INTL  PTCLDY    30  17  58 SE3       30.20F
SPIRIT OF STL  PTCLDY    27  21  78 CALM      30.19F
ST CHARLES     CLEAR     29  21  72 E3        30.20F

$$
MOZ072>076-082>087-097>100-106>115-280900-
...SOUTH CENTRAL AND SOUTHEAST MISSOURI...

CITY           SKY/WX    TMP DP  RH WIND       PRES   REMARKS
CAPE GIRARDEAU CLEAR     29  26  89 NE7       30.19S WCI  22
FARMINGTON     MOCLDY    28  21  74 CALM      30.20S
POPLAR BLUFF   CLOUDY    33  28  81 CALM      30.19S
WEST PLAINS    CLOUDY    36  21  54 E6        30.15S

$$


USA.gov is the U.S. government's official web portal to all federal, state and local government web resources and services.